{"data":{"norad_id":53731,"intl_designator":"2022-107AH","name":"STARLINK-4636","alt_names":[],"object_type":"PAYLOAD","status":"ACTIVE","operator":null,"country":"US","launch_date":"2022-09-05","launch_site_code":"AFETR","launch_vehicle":null,"mission":null,"orbit_class":"UNKNOWN","rcs_meters":null,"size_class":null,"mass_kg":null,"dimensions":null,"purposes":["comms"],"wikipedia_slug":null,"has_3d_model":false,"image_url":null,"decayed_at":null,"tle_current":{"epoch":"2026-05-25T00:51:22.876416Z","epoch_age_seconds":69194,"freshness":"FRESH","line1":"1 53731U 22107AH  26145.03568144  .00027861  00000+0  14722-2 0  9991","line2":"2 53731  53.2145 268.2821 0004350  29.4791 330.6448 15.15306687206158","mean_motion":15.15306687,"eccentricity":0.000435,"inclination_deg":53.2145,"raan_deg":268.2821,"arg_perigee_deg":29.4791,"mean_anomaly_deg":330.6448,"bstar":0.0014722,"rev_number":20615,"period_min":95.030267625289,"perigee_km":517.04693126562,"apogee_km":523.0483519038,"semimajor_km":6898.1846415847,"source":"CELESTRAK","updated_at":"2026-05-25T13:38:17.537447Z"}}}